Location: Bodenrode
(51.3964°N, 10.2102°E)
Time: 19:59:22
(UTC+00:00)

Daily predictions for brighter satellites

Satellite Brightness Start Highest point End
(mag) Time Altitude Azimuth Time Altitude Azimuth Time Altitude Azimuth
Cosmos 482 Debris 2.3 15:55:20 10° W 15:57:13 74° N 15:59:01 10° E
CZ-4B R/B 4.1 15:55:07 10° S 15:59:05 50° W 16:03:18 10° NNW
Cosmos 1937 Rocket 4.4 15:54:54 10° NNW 16:00:04 57° WSW 16:05:14 10° S
Cosmos-2242 3.9 15:57:06 10° SSW 16:01:22 52° WNW 16:05:42 10° N
CZ-4 R/B 3.3 16:04:01 10° ENE 16:04:58 11° NE 16:05:56 10° NE
Cosmos 2360 Rocket 2.6 15:59:24 10° SW 16:05:00 64° NW 16:10:37 10° NNE
Cosmos 921 Rocket 3.9 16:02:20 10° SW 16:06:44 51° WNW 16:11:10 10° NNE
Cosmos 1125 Rocket 3.8 16:02:22 10° NNW 16:07:21 43° ENE 16:12:19 10° SE
Cosmos 1633 3.8 16:04:24 10° NNW 16:07:50 45° W 16:11:16 10° SSW
Cosmos 2208 Rocket 4.3 16:04:23 10° S 16:09:28 51° ESE 16:14:40 10° NNE
Cosmos 44 4.4 16:07:18 10° NNW 16:11:48 29° NNE 16:16:28 10° E
Cosmos 2219 Rocket 2.2 16:08:19 10° SSW 16:13:55 68° ESE 16:19:32 10° NE
Cosmos 1500 Rocket 3.6 16:10:58 10° N 16:15:18 61° ENE 16:19:40 10° SSE
Cosmos 2221 2.6 16:12:12 10° S 16:16:27 57° E 16:20:42 10° NNE
Abrixas rocket 3.6 16:14:08 10° W 16:16:36 29° SSW 16:19:04 10° SE
CZ-4B R/B 3.1 16:11:57 10° SSE 16:17:15 68° ENE 16:22:32 10° NNW
ERS-2 3.7 16:16:18 11° NE 16:18:40 17° E 16:21:09 10° SE
Cosmos 1980 Rocket 4.3 16:15:32 10° WNW 16:18:56 16° NNW 16:22:22 10° N
Cosmos 1939 Rocket 3.9 16:16:05 10° ESE 16:19:09 23° ENE 16:22:15 10° N
SL-16 R/B 3.7 16:14:23 10° WSW 16:19:22 31° NW 16:24:24 10° NNE
SL-24 R/B - RUBIN 2 4.4 16:12:54 10° NW 16:19:25 74° NE 16:25:14 10° SE
FengYun 1-2 T 4.4 16:15:09 10° SE 16:20:29 50° ENE 16:25:48 10° N
NOAA 12 4.1 16:15:55 10° SSE 16:21:12 67° ENE 16:26:30 10° N
Cosmos 2237 Rocket 3.1 16:17:17 10° SSE 16:22:04 29° ESE 16:26:47 10° NE
ISS -1.6 16:21:57 10° S 16:24:06 16° SE 16:26:06 11° ESE
NOAA 11 4.3 16:20:05 10° SE 16:25:18 51° ENE 16:30:34 10° N
Cosmos 1869 3.5 16:21:15 10° SSW 16:25:18 80° WNW 16:29:26 10° N
USA 267 3.3 16:20:38 10° ESE 16:27:08 76° NNE 16:33:40 10° WNW
GENESIS II 4.3 16:23:27 10° NW 16:27:24 59° NE 16:31:17 10° SE
CZ-4B R/B 2.6 16:26:55 15° ENE 16:28:16 20° E 16:30:36 10° SE
YAOGAN 1 4.0 16:27:00 10° E 16:29:50 17° ENE 16:32:42 10° NNE
Cosmos 2322 3.9 16:24:19 10° SW 16:29:59 76° WNW 16:35:43 10° NNE
Cosmos 540 Rocket 3.5 16:25:18 10° SSW 16:30:27 84° WNW 16:35:37 10° NNE
Cosmos 2369 Rocket 3.6 16:27:58 10° NNW 16:32:08 20° NNE 16:34:50 15° ENE
Okean-O 3.8 16:31:35 10° ESE 16:35:01 22° ENE 16:38:28 10° N
AQUARIUS 4.1 16:30:59 10° SSE 16:35:29 78° ENE 16:40:00 10° NNW
CRYOSAT 2 4.5 16:30:46 10° NNE 16:35:34 54° E 16:40:22 10° SSE
COSMO-SKYMED 1 3.8 16:33:45 14° NE 16:36:21 22° E 16:39:43 10° SE
Meteor 2-2 Rocket 4.3 16:30:44 10° S 16:36:40 77° E 16:42:34 10° NNE
Cosmos 1743 Rocket 3.7 16:32:45 10° NNW 16:37:16 82° W 16:41:44 10° S
Cosmos 841 Rocket 3.7 16:33:31 10° SSW 16:38:45 76° WNW 16:43:59 10° NNE
CORIOLIS 4.1 16:34:25 10° SSE 16:39:49 83° ENE 16:45:18 10° NNW
Cosmos 1980 4.1 16:34:32 10° S 16:39:50 42° ESE 16:44:33 13° NE
Envisat 3.8 16:35:44 10° S 16:40:44 57° W 16:45:46 10° NNW
H-2A R/B 3.6 16:39:23 10° S 16:43:36 49° W 16:47:43 10° NNW
H-2A R/B 3.1 16:42:57 10° ESE 16:47:05 24° ENE 16:51:08 10° N
Okean O Rocket 1.7 16:43:35 10° SSE 16:47:57 79° WSW 16:52:21 10° NNW
Nadezhda 1 Rocket 4.0 16:42:16 10° S 16:48:34 75° E 16:54:59 10° NNE
Sich 1 3.1 16:44:49 10° N 16:49:11 54° ENE 16:53:28 10° SSE
Cosmos 1842 Rocket 4.1 16:48:08 10° SSW 16:52:24 60° WNW 16:56:43 10° N
Cosmos 405 Rocket 3.4 16:49:43 10° NNW 16:53:32 59° W 16:57:24 10° S
Cosmos 2292 4.3 16:51:40 10° S 16:54:45 71° E 16:58:26 10° NNE
Cosmos 1933 4.4 16:52:05 10° SE 16:55:23 25° E 16:55:34 25° E
Cosmos 2297 3.9 16:50:50 10° NNW 16:56:19 47° NE 17:01:49 10° SE
Cosmos 2154 Rocket 4.2 16:50:17 10° NNW 16:56:38 80° W 17:02:59 10° S
Cosmos 1805 Rocket 3.5 16:53:05 10° N 16:57:35 84° ENE 17:02:02 10° SSE
YAOGAN 6 4.5 16:57:38 10° SSW 17:01:00 34° W 17:04:22 10° NNW
Cosmos 962 Rocket 4.4 16:54:46 10° N 17:01:07 73° ENE 17:07:21 10° SSE
Cosmos 1814 Rocket 4.4 16:56:21 10° SW 17:01:39 66° WNW 17:06:57 10° NNE
Cosmos 1666 Rocket 3.7 16:59:19 10° N 17:03:36 50° ENE 17:07:53 10° SSE
Cosmos 2341 Rocket 3.9 16:57:46 10° N 17:04:02 69° ENE 17:10:20 10° SSE
Cosmos 1943 Rocket 2.7 17:00:22 10° NNW 17:05:28 36° NE 17:07:56 25° E
SMAP 4.0 17:02:16 10° S 17:06:48 50° W 17:11:21 10° NNW
Helios 1A Rocket 3.3 17:03:47 10° SE 17:07:31 38° ENE 17:11:16 10° N
USA 281 3.2 17:01:29 10° SE 17:07:58 67° ENE 17:14:30 10° NNW
Cosmos 2322 Rocket 4.2 17:04:09 10° W 17:08:25 21° NW 17:12:41 10° NNE
SL-16 R/B 3.1 17:04:37 10° SSE 17:09:12 26° ESE 17:09:55 25° E
Cosmos 1151 Rocket 3.9 17:06:35 10° SSE 17:09:51 29° ESE 17:09:51 29° ESE
MOS 1 Rocket 4.4 17:14:13 29° E 17:14:52 29° E 17:19:35 10° SSE
ARGOS 3.9 17:15:45 29° ENE 17:16:25 30° ENE 17:21:04 10° N
Cosmos 2285 Rocket 4.0 17:13:15 10° NNW 17:19:38 61° ENE 17:25:56 10° SE
NOSS 0 Rocket 3.9 17:13:28 10° SSW 17:19:44 88° ESE 17:24:41 17° NNE
Feng Yun 1-1 Rocket 4.3 17:14:16 10° SSE 17:20:05 85° WSW 17:25:49 10° NNW
CREW DRAGON DEMO-1 DEB 2.9 17:17:10 10° W 17:20:09 66° SSW 17:20:29 59° SSE
Cosmos 1606 2.6 17:16:48 10° S 17:20:40 74° E 17:23:04 22° NNE
Cosmos 389 Rocket 2.3 17:17:20 10° S 17:20:44 64° E 17:21:16 54° NE
Cosmos 836 Rocket 4.5 17:16:27 10° S 17:21:40 66° ESE 17:25:00 23° NE
CZ-2C R/B 3.0 17:16:44 10° SE 17:21:43 54° ENE 17:26:30 10° N
Cosmos 2333 Rocket 3.2 17:17:36 10° WSW 17:23:02 43° NW 17:28:10 11° NNE
H-2A R/B 3.2 17:19:42 10° N 17:23:36 40° WNW 17:27:31 10° SW
SKYMED 2 3.5 17:22:23 25° NNE 17:24:45 59° E 17:29:02 10° S
Meteor 1-20 Rocket 4.2 17:19:27 10° N 17:25:19 72° ENE 17:31:09 10° SSE
Cosmos 1867 4.1 17:21:44 10° S 17:26:41 37° ESE 17:27:32 35° E
COSMOS 2428 3.5 17:22:40 10° SW 17:28:14 49° NW 17:33:12 13° NNE
SL-8 Rocket 3.9 17:25:45 10° N 17:32:00 83° E 17:38:16 10° SSE
Cosmos 864 Rocket 4.4 17:26:08 10° N 17:32:28 68° ENE 17:38:43 10° SSE
Cosmos 2278 Rocket 3.9 17:29:14 10° NW 17:34:20 35° WSW 17:39:25 10° S
Cosmos 1633 Rocket 2.9 17:30:52 10° N 17:35:19 83° E 17:39:41 10° SSE
USA 215 3.2 17:32:16 32° ENE 17:35:33 71° SE 17:42:04 10° SW
EO 1 Delta rocket 4.2 17:32:12 10° NNE 17:37:09 61° E 17:43:18 10° S
Cosmos 2181 Rocket 3.9 17:32:20 10° S 17:38:44 70° E 17:45:06 10° NNE
CZ-4 R/B 1.1 17:37:52 39° SSE 17:39:15 75° ENE 17:43:15 10° N
SAR-Lupe-4 3.4 17:40:59 78° SSE 17:40:59 78° SSE 17:44:22 10° SSW
Cosmos 1959 Rocket 4.4 17:35:11 10° N 17:41:36 81° E 17:47:57 10° SSE
Meteor 1-25 Rocket 4.1 17:35:59 10° NNW 17:41:36 89° ENE 17:47:16 10° SSE
Cosmos 1821 Rocket 4.3 17:39:28 10° N 17:45:18 42° ENE 17:45:18 42° ENE
CZ-2D R/B 3.6 17:43:08 10° S 17:46:55 64° W 17:50:45 10° NNW
Cosmos 1241 Rocket 4.5 17:41:59 10° NW 17:48:38 79° NE 17:51:53 33° SE
Cosmos 2360 Rocket 4.3 17:46:11 10° WNW 17:50:09 19° NNW 17:54:07 10° NNE
ERS-2 3.1 17:50:53 28° NNW 17:52:28 46° WNW 17:55:59 10° SW
Cosmos 44 3.4 17:48:24 10° NW 17:53:40 88° SW 17:55:25 44° SE
Cosmos 1939 Rocket 4.1 17:50:15 10° SSW 17:53:53 39° W 17:57:35 10° NNW
CSL-04 Debris 4.1 17:51:54 29° SE 17:54:45 69° ENE 18:00:14 10° NNW
DEBRIS 3.9 17:40:39 10° W 17:55:03 75° S 17:56:22 51° ESE
SJ-11-01 4.2 17:57:31 70° NE 17:57:31 70° NE 18:02:04 10° N
SL-08 R/B 4.3 17:51:25 10° N 17:57:37 68° ENE 18:03:42 10° SSE
Cosmos 2219 Rocket 3.8 17:53:25 10° WSW 17:58:21 30° NW 18:02:22 14° NNE
ISS -2.1 17:57:05 10° WSW 17:59:04 31° SW 17:59:04 31° SW
CZ-4B R/B 3.2 18:00:04 25° NW 18:00:32 26° WNW 18:03:10 10° SW
YAOGAN 1 2.7 18:03:51 37° S 18:05:28 72° WSW 18:09:49 10° NNW
Cosmos 2237 Rocket 2.7 18:00:17 10° SW 18:05:49 58° NW 18:08:38 29° NNE
Cosmos 1470 Rocket 4.2 18:05:19 10° NNW 18:08:27 46° NNW 18:08:27 46° NNW
USA 267 3.9 18:05:49 19° SSE 18:10:25 50° SW 18:16:45 10° WNW
Okean-O 3.3 18:06:51 10° S 18:11:11 54° W 18:15:34 10° NNW
COSMO-SKYMED 1 3.4 18:10:59 30° NNW 18:12:47 50° WNW 18:16:59 10° SW
Cosmos 2218 Rocket 4.4 18:09:35 10° NNW 18:15:38 60° W 18:21:39 10° S
Cosmos 2369 Rocket 2.3 18:11:33 10° NNW 18:16:39 62° NNE 18:16:39 62° NNE
CSL-04 Rocket 3.6 18:18:44 58° S 18:19:50 84° WSW 18:25:13 10° NNW
H-2A R/B 2.3 18:23:36 32° S 18:26:05 69° WSW 18:31:19 10° NNW
Cosmos 1943 Rocket 2.8 18:44:04 10° NW 18:49:25 51° WSW 18:49:30 51° WSW
SL-16 R/B 2.8 18:47:17 10° SW 18:51:51 54° WSW 18:51:51 54° WSW
MOS 1 Rocket 4.3 18:53:31 52° WNW 18:53:31 52° WNW 18:58:35 10° SW
ARGOS 3.9 18:57:17 48° WNW 18:57:17 48° WNW 19:01:46 10° NNW
CZ-4 R/B 4.4 19:13:55 12° WSW 19:14:50 13° W 19:16:35 10° WNW
USA 215 3.7 19:19:37 56° WNW 19:19:37 56° WNW 19:25:01 10° W
